Tracking 31027 objects as of 19-Jul-2025
HD Live streaming from Space Station
objects crossing your sky now

BREEZE-M DEB

Track BREEZE-M DEB now!


NORAD ID: 38187
Int'l Code: 2011-069D
Perigee: 11,891.2 km
Apogee: 34,222.7 km
Inclination: 1.2 °
Period: 837.3 minutes
Semi major axis: 29427 km
RCS: 0.003 m2 (small)
Launch date: November 25, 2011
Source: Commonwealth of Independent States (former USSR) (CIS)
Launch site: TYURATAM MISSILE AND SPACE COMPLEX (TTMTR)

Note: This is SATELLITE DEBRIS
Your satellite tracking list
ST5-A
Track 1 satellite(s)




NASA's NSSDC Master Catalog

Two Line Element Set (TLE):
1 38187U 11069D   25198.73179595 -.00000079  00000-0  00000-0 0  9992
2 38187   1.2043  46.1536 3794255 299.8719  27.6171  1.71973998 83283
Source of the keplerian elements: AFSPC